This is the latest recevied weather packets stored in our database for station/object W0AVQ. If no packets are shown the sender has not sent any weather packets the latest 1 day(s).
| Time | Temp. | Humidity | Pressure | Rain* | Wind** | Luminosity | Snow |
|---|---|---|---|---|---|---|---|
| 1778053866 | 7.78° C | 99% | 1012.8 hPa | 1.27 mm | 0.89 m/s, 28° | 0 W/m² | - |
| 1778053564 | 7.78° C | 99% | 1012.8 hPa | 0 mm | 0 m/s | 0 W/m² | - |
| 1778053261 | 7.78° C | 99% | 1012.9 hPa | 0 mm | 0.45 m/s, 333° | 0 W/m² | - |
| 1778052959 | 7.78° C | 99% | 1012.6 hPa | 0 mm | 0 m/s | 0 W/m² | - |
| 1778052656 | 7.78° C | 99% | 1012.5 hPa | 0 mm | 0 m/s | 0 W/m² | - |
| 1778052353 | 7.78° C | 99% | 1012.7 hPa | 0 mm | 0.45 m/s, 17° | 0 W/m² | - |
| 1778052051 | 7.78° C | 99% | 1012.5 hPa | 0 mm | 0 m/s | 0 W/m² | - |
| 1778051748 | 7.78° C | 99% | 1012.7 hPa | 0 mm | 0 m/s | 0 W/m² | - |
| 1778051445 | 7.78° C | 99% | 1012.8 hPa | 0 mm | 0 m/s | 0 W/m² | - |
| 1778051143 | 7.78° C | 99% | 1012.5 hPa | 0 mm | 0 m/s | 0 W/m² | - |
| 1778050839 | 7.78° C | 99% | 1013 hPa | 0 mm | 0 m/s | 0 W/m² | - |
| 1778050538 | 7.78° C | 99% | 1013.1 hPa | 0 mm | 1.79 m/s, 353° | 0 W/m² | - |
| 1778050234 | 7.78° C | 99% | 1013.1 hPa | 1.78 mm | 0 m/s | 0 W/m² | - |
| 1778049931 | 7.78° C | 99% | 1013.1 hPa | 1.78 mm | 0.45 m/s, 353° | 0 W/m² | - |
| 1778049626 | 7.78° C | 99% | 1013.2 hPa | 1.27 mm | 0 m/s | 0 W/m² | - |
| 1778049325 | 7.78° C | 99% | 1013.3 hPa | 3.05 mm | 0 m/s | 0 W/m² | - |
| 1778049022 | 7.78° C | 99% | 1012.9 hPa | 4.83 mm | 0.45 m/s, 304° | 0 W/m² | - |
| 1778048720 | 7.78° C | 99% | 1013.1 hPa | 6.1 mm | 0 m/s | 0 W/m² | - |
| 1778048417 | 8.33° C | 99% | 1012.8 hPa | 8.89 mm | 0 m/s | 0 W/m² | - |
| 1778048112 | 8.33° C | 99% | 1012.7 hPa | 6.1 mm | 0.45 m/s, 291° | 0 W/m² | - |
| 1778047810 | 8.33° C | 99% | 1012.5 hPa | 0 mm | 0 m/s | 0 W/m² | - |
| 1778047509 | 8.33° C | 99% | 1011.9 hPa | 0 mm | 0.45 m/s, 41° | 0 W/m² | - |
| 1778047205 | 8.33° C | 99% | 1012 hPa | 1.78 mm | 0.89 m/s, 303° | 0 W/m² | - |
| 1778046903 | 8.89° C | 99% | 1012 hPa | 6.1 mm | 1.79 m/s, 343° | 0 W/m² | - |
| 1778046599 | 8.89° C | 99% | 1012.1 hPa | 11.94 mm | 0.89 m/s, 7° | 0 W/m² | - |
* Rain latest hour (hover to see other rain measurements)
** Current wind speed in m/s (hover to see current wind gust speed)